User: anonymous   Login
Location: Antin
(43.3330°N, 0.2804°E)
Time: 13:47:46
(UTC+00:00)
Language:

SME Rocket - Orbit

View from above orbital plane
View from above orbital plane
View from above satellite
View from above satellite

Ground track
Ground track

The orbit data is extracted from the following two-line orbital elements,

1 12889U 81100C   22272.52674687  .00000492  00000-0  25440-3 0  9991
2 12889  99.9160  17.2705 1315889 124.7765 260.2719 12.18277412816011
Epoch (UTC): 29 September 2022 12:38:30
Eccentricity: 0.1315889
inclination: 99.9160°
perigee height: 550 km
apogee height: 2650 km
right ascension of ascending node: 17.2705°
argument of perigee: 124.7765°
revolutions per day: 12.18277412
mean anomaly at epoch: 260.2719°
orbit number at epoch: 81601

The dashed part of the orbit path shows where the satellite is in the earth's shadow,  

DLR